Location: Laterina
(43.5167°N, 11.7167°E)
Time: 16:37:55
(UTC+00:00)

Resurs 01 Rocket - Pass Details

Date: 24 September 2020
Orbit: 633 x 645 km, 98.0° (Epoch: 25 October)

Event Time Altitude Azimuth Distance (km) Brightness Sun altitude
Exits shadow 18:25:51 14° 56° (NE) 1,819 3.6 -15.1°
Drops below altitude 10° 18:27:42 10° 31° (NNE) 2,048 4.0 -15.5°
Sets 18:30:55 0° 6° (N) 2,961 5.2 -16.0°
